Regional Weather Roundup
Issued by NWS

Home | Current Version | Previous Version | Graphics & Text | Print | Product List | Glossary On
Versions: 1 2 3 4 5 6 7 8 9 10 11 12 13 14 15 16 17 18 19 20 21 22 23 24 25 26 27 28 29 30 31 32 33 34 35 36 37 38 39 40 41 42 43 44 45 46 47 48 49 50
000
ASUS43 KFSD 032302
RWRSD

WEATHER ROUNDUP FOR SOUTH DAKOTA
NATIONAL WEATHER SERVICE SIOUX FALLS SD
600 PM CDT THU SEP 03 2015

NOTE: "FAIR" INDICATES FEW OR NO CLOUDS BELOW 12,000 FEET WITH NO
SIGNIFICANT WEATHER AND/OR OBSTRUCTIONS TO VISIBILITY.


SDZ001>005-009-010-012>017-040000-
NORTHWEST AND NORTH CENTRAL SOUTH DAKOTA

CITY           SKY/WX    TMP DP  RH WIND       PRES   REMARKS
BUFFALO          N/A     84  51  31 NE5       29.69F
MOBRIDGE       MOSUNNY   89  59  36 S9        29.65R
$$

SDZ012>016-024>037-041>051-057-063-072>074-040000-
SOUTHWEST AND SOUTH CENTRAL SOUTH DAKOTA

CITY           SKY/WX    TMP DP  RH WIND       PRES   REMARKS
RAPID CTY ARPT PTSUNNY   93  46  19 S12G21    29.72F
PIERRE         PTSUNNY   96  47  18 SE18      29.65F
CUSTER         PTSUNNY   86  32  14 CALM      29.93F
ELLSWORTH AFB  PTSUNNY   96  47  18 N16G22    29.72F
PHILIP         PTSUNNY   91  57  31 S12       29.67F
PINE RIDGE     CLOUDY    91  47  21 S10       29.77S
WINNER         FAIR      90  65  43 SE10      29.71F
$$

SDZ004>011-016>023-039-040-040000-
NORTHEAST SOUTH DAKOTA

CITY           SKY/WX    TMP DP  RH WIND       PRES   REMARKS
ABERDEEN       SUNNY     91  70  49 S10       29.71F HX  96
WATERTOWN      SUNNY     88  71  57 S15       29.78F
BROOKINGS      SUNNY     84  70  61 S14       29.81S
$$

SDZ017-020-022-023-036>040-048>070-040000-
SOUTHEAST SOUTH DAKOTA

CITY           SKY/WX    TMP DP  RH WIND       PRES   REMARKS
SIOUX FALLS    MOSUNNY   85  71  63 S15       29.78S
HURON          SUNNY     89  71  55 SE13      29.71F HX  95
CHAMBERLAIN    PTSUNNY   86  73  65 SE9       29.71F
MITCHELL       SUNNY     88  73  61 SE14      29.73S HX  95
YANKTON        SUNNY     88  72  58 SE13G20   29.74S
$$

ABBREVIATIONS USED IN REMARKS
   TC - TEMPERATURE IN CELSIUS
  WCI - WIND CHILL INDEX
   HX - HEAT INDEX
  VSB - VISIBILITY



USA.gov is the U.S. government's official web portal to all federal, state and local government web resources and services.